ギブス彗星

C/2018 A6 ( Gibbs )

English version
Home page
Updated on January 20, 2020

---------------------------------------------------------------------

・ プロフィール

発見日 2018年1月15日
発見光度 19.3等
発見者 A. R. Gibbs (Mount Lemmon)

・ 写真集

・ 軌道要素

Epoch 2019 July 16.0 TT = JDT 2458680.5
T 2019 July 14.26779 TT                                 Williams
q   3.0177638            (2000.0)            P               Q
n   0.01637791     Peri.  264.52775     -0.16525433     +0.93045698
a  15.3566714      Node   340.38604     +0.22092844     -0.28822648
e   0.8034884      Incl.   76.95487     -0.96118761     -0.22621959
P  60.2
From 411 observations 2017 Apr. 3-2019 Dec. 26, mean residual 0".4.

・ 星図

・ 光度変化

        m1 = 4.2 + 5 logΔ + 15.0 log r

---------------------------------------------------------------------

軌道要素はM.P.E.C. 2020-A105に掲載されたものです。
星図はステラナビゲータ Ver.10 (アストロアーツ) で作成したものです。
光度グラフはComet for Windowsで作成したものです。

---------------------------------------------------------------------

Copyright(C) Seiichi Yoshida (comet@aerith.net). All rights reserved.